Vineland Station Rcs, Ontario

11:36 PM EST on February 21, 2017 (GMT -0500)
Vineland (AU8)

Weather History for CXVN - July, 2013

Change the Weather History Date:

Tuesday, July 9, 2013

  Actual Average (CYSN) Record (CYSN)
Temperature  
Mean Temperature 76 °F -  
Max Temperature 81 °F 76 °F 91 °F (2007)
Min Temperature 70 °F 60 °F 55 °F (1997)
Cooling Degree Days 10    
Growing Degree Days 26 (Base 50)    
Moisture  
Dew Point 69 °F    
Average Humidity 85    
Maximum Humidity 93    
Minimum Humidity 69    
Precipitation  
Precipitation 0.01 in - - ()
Sea Level Pressure  
Sea Level Pressure 29.93 in    
Wind  
Wind Speed 3 mph ()    
Max Wind Speed 9 mph    
Max Gust Speed -    
Averages and records for this station are not official NWS values.
T = Trace of Precipitation, MM = Missing Value Source: Averaged Metar Reports

Daily Weather History Graph

Daily Weather History Graph

Search for Another Location

Airport or City:

Trip Planner

Search our weather history database for the weather conditions in past years. The results will help you decide how hot, cold, wet, or windy it might be!

Date:

Astronomy

Jul. 09, 2013 Rise Set
Actual Time 5:46 AM EDT 8:58 PM EDT
Civil Twilight 5:12 AM EDT 9:33 PM EDT
Nautical Twilight 4:27 AM EDT 10:17 PM EDT
Astronomical Twilight 3:32 AM EDT 11:11 PM EDT
Moon 7:13 AM EDT (7/9) 9:30 PM EDT (7/9)
Length of Visible Light 16h 21m
Length of Day
15h 11m
New Moon, 2% of the Moon is Illuminated
Jul 9
New Moon
Jul 15
First Quarter
Jul 22
Full
Jul 29
Last Quarter
Aug 6
New

Hourly Weather History & Observations

Time (EDT) Temp. Heat Index Dew Point Humidity Pressure Visibility Wind Dir Wind Speed Gust Speed Precip Events Conditions
12:00 AM 70.9 °F - 68.0 °F 91% 29.99 in - SSW 1.2 mph - N/A   Unknown
1:00 AM 70.7 °F - 68.4 °F 92% 29.98 in - ESE 1.2 mph - 0.01 in   Unknown
2:00 AM 71 °F - 69 °F 90% 29.97 in - SE 2.3 mph - -  
2:00 AM 71.1 °F - 68.7 °F 92% 29.97 in - SE 2.3 mph - N/A   Unknown
3:00 AM 71.1 °F - 69.1 °F 93% 29.96 in - SW 2.3 mph - N/A   Unknown
4:00 AM 71.2 °F - 68.9 °F 92% 29.97 in - SW 5.8 mph - N/A   Unknown
5:00 AM 70.9 °F - 68.2 °F 91% 29.96 in - SW 4.6 mph - N/A   Unknown
6:00 AM 70.5 °F - 68.0 °F 92% 29.98 in - SSW 1.2 mph - N/A   Unknown
7:00 AM 71.1 °F - 68.0 °F 90% 29.98 in - South 2.3 mph - N/A   Unknown
8:00 AM 72 °F - 68 °F 85% 29.98 in - SSE 1.2 mph - -  
8:00 AM 71.8 °F - 68.4 °F 89% 29.98 in - SSE 1.2 mph - N/A   Unknown
9:00 AM 72.3 °F - 68.9 °F 89% 29.98 in - East 2.3 mph - N/A   Unknown
1:00 PM 74.5 °F - 68.9 °F 83% 29.95 in - SW 8.1 mph - N/A   Unknown
2:00 PM 75 °F - 69 °F 78% 29.95 in - SSW 6.9 mph - -  
2:00 PM 75.4 °F - 69.4 °F 82% 29.95 in - SSW 6.9 mph - N/A   Unknown
3:00 PM 76.1 °F - 69.3 °F 79% 29.93 in - SSW 5.8 mph - N/A   Unknown
4:00 PM 78.6 °F - 70.3 °F 76% 29.91 in - SSW 8.1 mph - N/A   Unknown
5:00 PM 79.9 °F - 70.5 °F 73% 29.89 in - SSW 6.9 mph - N/A   Unknown
6:00 PM 81.1 °F 84.7 °F 70.2 °F 69% 29.87 in - SSW 5.8 mph - N/A   Unknown
7:00 PM 75.9 °F - 70.0 °F 82% 29.86 in - East 3.5 mph - N/A   Unknown
8:00 PM 78 °F - 70 °F 71% 29.86 in - SSW 6.9 mph - -  
8:00 PM 78.1 °F - 70.2 °F 77% 29.86 in - SSW 6.9 mph - N/A   Unknown
9:00 PM 75.0 °F - 69.6 °F 83% 29.85 in - SSW 5.8 mph - N/A   Unknown
10:00 PM 73.2 °F - 69.4 °F 88% 29.86 in - SSW 9.2 mph - N/A   Unknown
11:00 PM 72.5 °F - 69.6 °F 91% 29.85 in - SSW 6.9 mph - N/A   Unknown